Flag for Canada Weather past 2 weeks in Riverview, New Brunswick, Canada

52 °F

Scattered clouds.

Feels Like: 50 °F
Forecast: N/A
Wind: 6 mph from Northeast

Location: Moncton

Current Time: Oct 6, 2015 at 8:27:29 PM

Latest Report: Oct 6, 2015 at 7:00 PM

Visibility: 15 mi

Pressure: 29.85 "Hg

Humidity: 88%

Dew point: 48 °F

Location of RiverviewLocation

Historic Weather in Riverview — Graph


Riverview temperature yesterday

Maximum temperature yesterday: 63 °F (at 3:00 PM)
Minimum temperature yesterday: 34 °F (at 5:00 AM)
Average temperature yesterday: 48 °F

Past Weeks' High & Low Weather Summary

High79 °F (Sep 29, 1:00 PM)100% (Sep 22, 6:00 AM)30.54 "Hg (Sep 22, 6:00 AM)
Low32 °F (Oct 4, 7:00 AM)26% (Sep 24, 2:00 PM)29.74 "Hg (Oct 1, 1:00 AM)
Average54 °F75%30.24 "Hg
* Reported Sep 21 7:00 PM — Oct 6 7:00 PM, Riverview, Weather by CustomWeather, © 2015

Note: Actual official high and low records may vary slightly from our data, if they occured in-between our weather recording intervals... More about our weather records


Riverview weather history for previous 24 hours

Time TempWeatherWind HumidityBarometerVisibility
7:00 PM
Tue, Oct 6
52 °FScattered clouds.6 mph88%29.85 "Hg15 mi
6:00 PM57 °FPassing clouds.6 mph77%29.86 "Hg15 mi
5:00 PM61 °FPassing clouds.7 mph63%29.87 "Hg15 mi
4:00 PM63 °FScattered clouds.8 mph59%29.88 "Hg15 mi
3:00 PM63 °FScattered clouds.6 mph59%29.89 "Hg15 mi
2:00 PM61 °FBroken clouds.10 mph63%29.91 "Hg15 mi
1:00 PM59 °FBroken clouds.6 mph68%29.93 "Hg15 mi
12:00 PM61 °FScattered clouds.3 mph68%29.94 "Hg15 mi
11:00 AM57 °FPassing clouds.2 mph77%29.96 "Hg15 mi
10:00 AM52 °FPassing clouds.3 mph88%29.97 "Hg15 mi
9:00 AM45 °FScattered clouds.2 mph100%29.98 "Hg15 mi
8:00 AM41 °FPassing clouds.2 mph100%29.99 "Hg15 mi
7:00 AM41 °FFog.3 mph100%29.99 "Hg1 mi
6:00 AM41 °FFog.2 mph100%30.01 "Hg1 mi
5:00 AM41 °FFog.6 mph100%30.01 "Hg1 mi
4:00 AM45 °FFog.5 mph100%30.03 "Hg6 mi
3:00 AM45 °FPassing clouds.5 mph100%30.04 "Hg15 mi
2:00 AM48 °FPassing clouds.5 mph94%30.06 "Hg15 mi
1:00 AM45 °FPassing clouds.5 mph100%30.08 "Hg15 mi
12:00 AM48 °FPassing clouds.3 mph100%30.09 "Hg15 mi
11:00 PM
Mon, Oct 5
48 °FPassing clouds.5 mph94%30.10 "Hg15 mi
10:00 PM52 °FPassing clouds.7 mph88%30.12 "Hg15 mi
9:00 PM54 °FPassing clouds.5 mph82%30.12 "Hg15 mi
8:00 PM54 °FPassing clouds.5 mph82%30.12 "Hg15 mi
Weather by CustomWeather, © 2015

See weather overviewHow to use our weather pages